Time,TemperatureF,DewpointF,PressureIn,WindDirection,WindDirectionDegrees,WindSpeedMPH,WindSpeedGustMPH,Humidity,HourlyPrecipIn,Conditions,Clouds,dailyrainin,SoftwareType,DateUTC
2013-10-27 00:00:00,45.2,32.5,29.89,North,32767,-999.0,0.0,61,0.00,,,0.00,Wunderground v.1.15,2013-10-27 04:00:00,
2013-10-27 00:04:00,45.2,32.5,29.89,North,32767,-999.0,0.0,61,0.00,,,0.00,Wunderground v.1.15,2013-10-27 04:04:00,
2013-10-27 00:09:00,45.2,32.5,29.89,North,32767,-999.0,0.0,61,0.00,,,0.00,Wunderground v.1.15,2013-10-27 04:09:00,
2013-10-27 00:15:00,45.1,32.4,29.89,North,32767,-999.0,0.0,61,0.00,,,0.00,Wunderground v.1.15,2013-10-27 04:15:00,
2013-10-27 00:20:00,45.1,32.4,29.89,North,32767,-999.0,0.0,61,0.00,,,0.00,Wunderground v.1.15,2013-10-27 04:20:00,
2013-10-27 00:25:00,45.1,32.4,29.89,North,32767,-999.0,0.0,61,0.00,,,0.00,Wunderground v.1.15,2013-10-27 04:25:00,
2013-10-27 00:30:00,45.1,32.4,29.88,North,32767,-999.0,0.0,61,0.00,,,0.00,Wunderground v.1.15,2013-10-27 04:30:00,
2013-10-27 00:40:00,45.1,32.0,29.88,North,32767,-999.0,0.0,60,0.00,,,0.00,Wunderground v.1.15,2013-10-27 04:40:00,
2013-10-27 00:45:00,45.2,31.7,29.88,North,32767,-999.0,0.0,59,0.00,,,0.00,Wunderground v.1.15,2013-10-27 04:45:00,
2013-10-27 00:50:00,45.4,31.9,29.88,North,32767,-999.0,0.0,59,0.00,,,0.00,Wunderground v.1.15,2013-10-27 04:50:00,
2013-10-27 00:55:00,45.4,31.9,29.88,North,32767,-999.0,0.0,59,0.00,,,0.00,Wunderground v.1.15,2013-10-27 04:55:00,
2013-10-27 01:00:00,45.5,32.0,29.88,North,32767,-999.0,0.0,59,0.00,,,0.00,Wunderground v.1.15,2013-10-27 05:00:00,
2013-10-27 01:10:00,45.6,31.7,29.88,North,32767,-999.0,0.0,58,0.00,,,0.00,Wunderground v.1.15,2013-10-27 05:10:00,
2013-10-27 01:15:00,45.8,31.9,29.88,North,32767,-999.0,0.0,58,0.00,,,0.00,Wunderground v.1.15,2013-10-27 05:15:00,
2013-10-27 01:20:00,45.8,31.4,29.88,North,32767,-999.0,0.0,57,0.00,,,0.00,Wunderground v.1.15,2013-10-27 05:20:00,
2013-10-27 01:30:00,45.8,31.4,29.88,North,32767,-999.0,0.0,57,0.00,,,0.00,Wunderground v.1.15,2013-10-27 05:30:00,
2013-10-27 01:40:00,45.7,31.8,29.88,North,32767,-999.0,0.0,58,0.00,,,0.00,Wunderground v.1.15,2013-10-27 05:40:00,
2013-10-27 01:50:00,45.6,32.1,29.88,North,32767,-999.0,0.0,59,0.00,,,0.00,Wunderground v.1.15,2013-10-27 05:50:00,
2013-10-27 01:55:00,45.5,32.0,29.88,North,32767,-999.0,0.0,59,0.00,,,0.00,Wunderground v.1.15,2013-10-27 05:55:00,
2013-10-27 02:00:00,45.5,32.0,29.88,North,32767,-999.0,0.0,59,0.00,,,0.00,Wunderground v.1.15,2013-10-27 06:00:00,
2013-10-27 02:09:00,45.4,31.9,29.88,North,32767,-999.0,0.0,59,0.00,,,0.00,Wunderground v.1.15,2013-10-27 06:09:00,
2013-10-27 02:15:00,45.3,31.8,29.88,North,32767,-999.0,0.0,59,0.00,,,0.00,Wunderground v.1.15,2013-10-27 06:15:00,
2013-10-27 02:25:00,45.1,31.6,29.88,North,32767,-999.0,0.0,59,0.00,,,0.00,Wunderground v.1.15,2013-10-27 06:25:00,
2013-10-27 02:30:00,45.0,31.9,29.88,North,32767,-999.0,0.0,60,0.00,,,0.00,Wunderground v.1.15,2013-10-27 06:30:00,
2013-10-27 02:35:00,44.9,31.8,29.88,North,32767,-999.0,0.0,60,0.00,,,0.00,Wunderground v.1.15,2013-10-27 06:35:00,
2013-10-27 02:44:00,44.9,31.8,29.88,North,32767,-999.0,0.0,60,0.00,,,0.00,Wunderground v.1.15,2013-10-27 06:44:00,
2013-10-27 02:49:00,44.9,31.8,29.88,North,32767,-999.0,0.0,60,0.00,,,0.00,Wunderground v.1.15,2013-10-27 06:49:00,
2013-10-27 03:00:00,44.5,31.9,29.87,North,32767,-999.0,0.0,61,0.00,,,0.00,Wunderground v.1.15,2013-10-27 07:00:00,
2013-10-27 03:09:00,44.2,31.6,29.87,North,32767,-999.0,0.0,61,0.00,,,0.00,Wunderground v.1.15,2013-10-27 07:09:00,
2013-10-27 03:15:00,44.1,31.9,29.87,North,32767,-999.0,0.0,62,0.00,,,0.00,Wunderground v.1.15,2013-10-27 07:15:00,
2013-10-27 03:25:00,44.0,31.8,29.87,North,32767,-999.0,0.0,62,0.00,,,0.00,Wunderground v.1.15,2013-10-27 07:25:00,
2013-10-27 03:30:00,43.9,31.7,29.87,North,32767,-999.0,0.0,62,0.00,,,0.00,Wunderground v.1.15,2013-10-27 07:30:00,
2013-10-27 03:40:00,43.6,31.8,29.87,North,32767,-999.0,0.0,63,0.00,,,0.00,Wunderground v.1.15,2013-10-27 07:40:00,
2013-10-27 03:45:00,43.4,31.6,29.86,North,32767,-999.0,0.0,63,0.00,,,0.00,Wunderground v.1.15,2013-10-27 07:45:00,
2013-10-27 03:54:00,43.3,31.5,29.86,North,32767,-999.0,0.0,63,0.00,,,0.00,Wunderground v.1.15,2013-10-27 07:54:00,
2013-10-27 04:00:00,43.2,31.8,29.86,North,32767,-999.0,0.0,64,0.00,,,0.00,Wunderground v.1.15,2013-10-27 08:00:00,
2013-10-27 04:10:00,43.1,31.7,29.86,North,32767,-999.0,0.0,64,0.00,,,0.00,Wunderground v.1.15,2013-10-27 08:10:00,
2013-10-27 04:15:00,43.1,31.7,29.86,North,32767,-999.0,0.0,64,0.00,,,0.00,Wunderground v.1.15,2013-10-27 08:15:00,
2013-10-27 04:25:00,42.8,31.8,29.86,North,32767,-999.0,0.0,65,0.00,,,0.00,Wunderground v.1.15,2013-10-27 08:25:00,
2013-10-27 04:30:00,42.8,31.8,29.86,North,32767,-999.0,0.0,65,0.00,,,0.00,Wunderground v.1.15,2013-10-27 08:30:00,
2013-10-27 04:40:00,43.0,32.0,29.86,North,32767,-999.0,0.0,65,0.00,,,0.00,Wunderground v.1.15,2013-10-27 08:40:00,
2013-10-27 04:49:00,43.0,32.0,29.87,North,32767,-999.0,0.0,65,0.00,,,0.00,Wunderground v.1.15,2013-10-27 08:49:00,
2013-10-27 04:55:00,43.0,32.0,29.88,North,32767,-999.0,0.0,65,0.00,,,0.00,Wunderground v.1.15,2013-10-27 08:55:00,
2013-10-27 05:00:00,42.8,32.2,29.88,North,32767,-999.0,0.0,66,0.00,,,0.00,Wunderground v.1.15,2013-10-27 09:00:00,
2013-10-27 05:10:00,42.7,32.1,29.88,North,32767,-999.0,0.0,66,0.00,,,0.00,Wunderground v.1.15,2013-10-27 09:10:00,
2013-10-27 05:20:00,42.5,32.3,29.88,North,32767,-999.0,0.0,67,0.00,,,0.00,Wunderground v.1.15,2013-10-27 09:20:00,
2013-10-27 05:25:00,42.4,32.2,29.88,North,32767,-999.0,0.0,67,0.00,,,0.00,Wunderground v.1.15,2013-10-27 09:25:00,
2013-10-27 05:35:00,42.5,32.3,29.88,North,32767,-999.0,0.0,67,0.00,,,0.00,Wunderground v.1.15,2013-10-27 09:35:00,
2013-10-27 05:40:00,42.4,32.2,29.89,North,32767,-999.0,0.0,67,0.00,,,0.00,Wunderground v.1.15,2013-10-27 09:40:00,
2013-10-27 05:50:00,42.2,32.4,29.89,North,32767,-999.0,0.0,68,0.00,,,0.00,Wunderground v.1.15,2013-10-27 09:50:00,
2013-10-27 06:00:00,42.1,32.3,29.90,North,32767,-999.0,0.0,68,0.00,,,0.00,Wunderground v.1.15,2013-10-27 10:00:00,
2013-10-27 06:10:00,42.0,32.6,29.90,North,32767,-999.0,0.0,69,0.00,,,0.00,Wunderground v.1.15,2013-10-27 10:10:00,
2013-10-27 06:20:00,41.9,32.5,29.90,North,32767,-999.0,0.0,69,0.00,,,0.00,Wunderground v.1.15,2013-10-27 10:20:00,
2013-10-27 06:29:00,42.0,32.9,29.90,North,32767,-999.0,0.0,70,0.00,,,0.00,Wunderground v.1.15,2013-10-27 10:29:00,
2013-10-27 06:40:00,41.8,32.7,29.90,North,32767,-999.0,0.0,70,0.00,,,0.00,Wunderground v.1.15,2013-10-27 10:40:00,
2013-10-27 06:50:00,41.6,32.5,29.91,North,32767,-999.0,0.0,70,0.00,,,0.00,Wunderground v.1.15,2013-10-27 10:50:00,
2013-10-27 07:00:00,41.4,32.7,29.91,North,32767,-999.0,0.0,71,0.00,,,0.00,Wunderground v.1.15,2013-10-27 11:00:00,
2013-10-27 07:10:00,41.3,32.6,29.92,North,32767,-999.0,0.0,71,0.00,,,0.00,Wunderground v.1.15,2013-10-27 11:10:00,
2013-10-27 07:20:00,41.1,32.8,29.92,North,32767,-999.0,0.0,72,0.00,,,0.00,Wunderground v.1.15,2013-10-27 11:20:00,
2013-10-27 07:30:00,41.0,32.7,29.93,North,32767,-999.0,0.0,72,0.00,,,0.00,Wunderground v.1.15,2013-10-27 11:30:00,
2013-10-27 07:40:00,40.9,32.9,29.93,North,32767,-999.0,0.0,73,0.00,,,0.00,Wunderground v.1.15,2013-10-27 11:40:00,
2013-10-27 07:45:00,40.9,33.2,29.93,North,32767,-999.0,0.0,74,0.00,,,0.00,Wunderground v.1.15,2013-10-27 11:45:00,
2013-10-27 07:54:00,41.0,33.3,29.93,North,32767,-999.0,0.0,74,0.00,,,0.00,Wunderground v.1.15,2013-10-27 11:54:00,
2013-10-27 08:00:00,41.1,33.4,29.93,North,32767,-999.0,0.0,74,0.00,,,0.00,Wunderground v.1.15,2013-10-27 12:00:00,
2013-10-27 08:09:00,41.1,33.4,29.93,North,32767,-999.0,0.0,74,0.00,,,0.00,Wunderground v.1.15,2013-10-27 12:09:00,
2013-10-27 08:15:00,41.2,33.2,29.94,North,32767,-999.0,0.0,73,0.00,,,0.00,Wunderground v.1.15,2013-10-27 12:15:00,
2013-10-27 08:25:00,41.1,33.4,29.95,North,32767,-999.0,0.0,74,0.00,,,0.00,Wunderground v.1.15,2013-10-27 12:25:00,
2013-10-27 08:35:00,41.1,33.4,29.95,ENE,78,0.0,0.0,74,0.00,,,0.00,Wunderground v.1.15,2013-10-27 12:35:00,
2013-10-27 08:40:00,41.2,33.5,29.95,East,95,0.0,0.0,74,0.00,,,0.00,Wunderground v.1.15,2013-10-27 12:40:00,
2013-10-27 08:49:00,42.0,34.0,29.95,East,81,0.0,0.0,73,0.00,,,0.00,Wunderground v.1.15,2013-10-27 12:49:00,
2013-10-27 09:00:00,43.1,34.3,29.96,East,80,0.0,0.0,71,0.00,,,0.00,Wunderground v.1.15,2013-10-27 13:00:00,
2013-10-27 09:10:00,43.6,34.1,29.97,NE,40,0.0,0.0,69,0.00,,,0.00,Wunderground v.1.15,2013-10-27 13:10:00,
2013-10-27 09:20:00,43.7,34.6,29.97,SE,134,0.0,0.0,70,0.00,,,0.00,Wunderground v.1.15,2013-10-27 13:20:00,
2013-10-27 09:30:00,43.9,34.4,29.97,ESE,107,0.0,0.0,69,0.00,,,0.00,Wunderground v.1.15,2013-10-27 13:30:00,
2013-10-27 09:35:00,44.0,34.5,29.97,East,79,0.0,0.0,69,0.00,,,0.00,Wunderground v.1.15,2013-10-27 13:35:00,
2013-10-27 09:44:00,44.4,34.9,29.98,ENE,76,0.0,0.0,69,0.00,,,0.00,Wunderground v.1.15,2013-10-27 13:44:00,
2013-10-27 09:55:00,44.8,34.9,29.98,North,5,0.0,0.0,68,0.00,,,0.00,Wunderground v.1.15,2013-10-27 13:55:00,
2013-10-27 10:00:00,45.0,35.1,29.98,East,86,0.0,0.0,68,0.00,,,0.00,Wunderground v.1.15,2013-10-27 14:00:00,
2013-10-27 10:10:00,45.5,34.4,29.98,East,92,0.0,0.0,65,0.00,,,0.00,Wunderground v.1.15,2013-10-27 14:10:00,
2013-10-27 10:15:00,45.5,34.8,29.98,ESE,103,0.0,0.0,66,0.00,,,0.00,Wunderground v.1.15,2013-10-27 14:15:00,
2013-10-27 10:20:00,45.4,34.3,29.98,NE,45,0.0,0.0,65,0.00,,,0.00,Wunderground v.1.15,2013-10-27 14:20:00,
2013-10-27 10:29:00,45.9,34.8,29.98,NNW,346,0.0,0.0,65,0.00,,,0.00,Wunderground v.1.15,2013-10-27 14:29:00,
2013-10-27 10:34:00,46.4,35.3,29.98,ENE,63,0.0,0.0,65,0.00,,,0.00,Wunderground v.1.15,2013-10-27 14:34:00,
2013-10-27 10:44:00,46.5,35.0,29.98,NNE,31,0.0,0.0,64,0.00,,,0.00,Wunderground v.1.15,2013-10-27 14:44:00,
2013-10-27 10:50:00,47.2,35.6,29.98,ESE,104,0.0,0.0,64,0.00,,,0.00,Wunderground v.1.15,2013-10-27 14:50:00,
2013-10-27 11:00:00,48.4,36.4,29.99,East,90,0.0,0.0,63,0.00,,,0.00,Wunderground v.1.15,2013-10-27 15:00:00,
2013-10-27 11:10:00,48.7,35.0,29.99,ENE,62,0.0,0.0,59,0.00,,,0.00,Wunderground v.1.15,2013-10-27 15:10:00,
2013-10-27 11:20:00,48.4,34.7,29.99,ENE,69,0.0,0.0,59,0.00,,,0.00,Wunderground v.1.15,2013-10-27 15:20:00,
2013-10-27 11:29:00,48.5,34.8,29.99,ENE,70,0.0,0.0,59,0.00,,,0.00,Wunderground v.1.15,2013-10-27 15:29:00,
2013-10-27 11:35:00,49.0,34.4,29.99,North,360,0.0,0.0,57,0.00,,,0.00,Wunderground v.1.15,2013-10-27 15:35:00,
2013-10-27 11:45:00,49.5,34.4,29.99,ENE,76,0.0,0.0,56,0.00,,,0.00,Wunderground v.1.15,2013-10-27 15:45:00,
2013-10-27 11:50:00,49.0,34.0,29.98,ENE,67,0.0,0.0,56,0.00,,,0.00,Wunderground v.1.15,2013-10-27 15:50:00,
2013-10-27 12:00:00,49.5,34.9,29.98,ENE,59,0.0,0.0,57,0.00,,,0.00,Wunderground v.1.15,2013-10-27 16:00:00,
2013-10-27 12:10:00,51.5,34.9,29.98,WNW,290,0.0,0.0,53,0.00,,,0.00,Wunderground v.1.15,2013-10-27 16:10:00,
2013-10-27 12:20:00,52.3,34.7,29.97,ESE,105,0.0,0.0,51,0.00,,,0.00,Wunderground v.1.15,2013-10-27 16:20:00,
2013-10-27 12:25:00,51.4,33.9,29.98,East,95,0.0,0.0,51,0.00,,,0.00,Wunderground v.1.15,2013-10-27 16:25:00,
2013-10-27 12:35:00,49.4,33.9,29.98,ENE,74,0.0,0.0,55,0.00,,,0.00,Wunderground v.1.15,2013-10-27 16:35:00,
2013-10-27 12:45:00,49.3,33.8,29.97,East,98,0.0,0.0,55,0.00,,,0.00,Wunderground v.1.15,2013-10-27 16:45:00,
2013-10-27 12:55:00,50.3,34.7,29.97,ENE,63,0.0,0.0,55,0.00,,,0.00,Wunderground v.1.15,2013-10-27 16:55:00,
2013-10-27 13:00:00,50.6,34.1,29.97,NE,51,0.0,0.0,53,0.00,,,0.00,Wunderground v.1.15,2013-10-27 17:00:00,
2013-10-27 13:09:00,49.9,33.9,29.97,East,94,0.0,0.0,54,0.00,,,0.00,Wunderground v.1.15,2013-10-27 17:09:00,
2013-10-27 13:19:00,49.5,34.4,29.96,NNE,33,0.0,0.0,56,0.00,,,0.00,Wunderground v.1.15,2013-10-27 17:19:00,
2013-10-27 13:30:00,50.4,34.4,29.96,ENE,58,0.0,0.0,54,0.00,,,0.00,Wunderground v.1.15,2013-10-27 17:30:00,
2013-10-27 13:40:00,52.2,34.6,29.96,NE,40,0.0,0.0,51,0.00,,,0.00,Wunderground v.1.15,2013-10-27 17:40:00,
2013-10-27 13:45:00,52.2,34.1,29.96,East,83,0.0,0.0,50,0.00,,,0.00,Wunderground v.1.15,2013-10-27 17:45:00,
2013-10-27 13:55:00,52.8,35.6,29.96,NNE,20,0.0,0.0,52,0.00,,,0.00,Wunderground v.1.15,2013-10-27 17:55:00,
2013-10-27 14:00:00,52.6,33.5,29.96,ESE,103,0.0,0.0,48,0.00,,,0.00,Wunderground v.1.15,2013-10-27 18:00:00,
2013-10-27 14:10:00,51.5,33.5,29.96,East,82,0.0,0.0,50,0.00,,,0.00,Wunderground v.1.15,2013-10-27 18:10:00,
2013-10-27 14:20:00,51.7,34.1,29.96,SW,232,0.0,0.0,51,0.00,,,0.00,Wunderground v.1.15,2013-10-27 18:20:00,
2013-10-27 14:30:00,52.9,33.7,29.96,NW,321,0.0,0.0,48,0.00,,,0.00,Wunderground v.1.15,2013-10-27 18:30:00,
2013-10-27 14:39:00,53.4,33.7,29.96,ENE,76,0.0,0.0,47,0.00,,,0.00,Wunderground v.1.15,2013-10-27 18:39:00,
2013-10-27 14:50:00,53.3,34.6,29.96,NE,38,0.0,0.0,49,0.00,,,0.00,Wunderground v.1.15,2013-10-27 18:50:00,
2013-10-27 15:00:00,52.6,34.0,29.97,NE,47,0.0,0.0,49,0.00,,,0.00,Wunderground v.1.15,2013-10-27 19:00:00,
2013-10-27 15:10:00,50.8,32.3,29.97,ENE,62,0.0,0.0,49,0.00,,,0.00,Wunderground v.1.15,2013-10-27 19:10:00,
2013-10-27 15:20:00,50.0,32.6,29.97,North,11,0.0,0.0,51,0.00,,,0.00,Wunderground v.1.15,2013-10-27 19:20:00,
2013-10-27 15:29:00,50.0,32.6,29.96,ENE,71,0.0,0.0,51,0.00,,,0.00,Wunderground v.1.15,2013-10-27 19:29:00,
2013-10-27 15:35:00,50.2,32.8,29.97,East,81,0.0,0.0,51,0.00,,,0.00,Wunderground v.1.15,2013-10-27 19:35:00,
2013-10-27 15:40:00,50.3,33.3,29.97,ENE,78,0.0,0.0,52,0.00,,,0.00,Wunderground v.1.15,2013-10-27 19:40:00,
2013-10-27 15:50:00,50.5,32.5,29.97,ESE,108,0.0,0.0,50,0.00,,,0.00,Wunderground v.1.15,2013-10-27 19:50:00,
2013-10-27 16:00:00,50.1,32.7,29.98,NE,53,0.0,0.0,51,0.00,,,0.00,Wunderground v.1.15,2013-10-27 20:00:00,
2013-10-27 16:09:00,49.9,32.5,29.98,ENE,60,0.0,0.0,51,0.00,,,0.00,Wunderground v.1.15,2013-10-27 20:09:00,
2013-10-27 16:19:00,49.8,32.9,29.98,ENE,65,0.0,0.0,52,0.00,,,0.00,Wunderground v.1.15,2013-10-27 20:19:00,
2013-10-27 16:25:00,49.6,33.2,29.98,ENE,59,0.0,0.0,53,0.00,,,0.00,Wunderground v.1.15,2013-10-27 20:25:00,
2013-10-27 16:35:00,49.6,32.7,29.98,ENE,74,0.0,0.0,52,0.00,,,0.00,Wunderground v.1.15,2013-10-27 20:35:00,
2013-10-27 16:45:00,49.9,33.0,29.99,SE,130,0.0,0.0,52,0.00,,,0.00,Wunderground v.1.15,2013-10-27 20:45:00,
2013-10-27 16:50:00,50.1,33.1,29.99,ESE,103,0.0,0.0,52,0.00,,,0.00,Wunderground v.1.15,2013-10-27 20:50:00,
2013-10-27 16:54:00,50.4,33.4,29.99,NE,53,0.0,0.0,52,0.00,,,0.00,Wunderground v.1.15,2013-10-27 20:54:00,
2013-10-27 17:00:00,50.4,32.9,29.99,NNW,335,0.0,0.0,51,0.00,,,0.00,Wunderground v.1.15,2013-10-27 21:00:00,
2013-10-27 17:10:00,50.0,32.1,29.99,WSW,254,0.0,0.0,50,0.00,,,0.00,Wunderground v.1.15,2013-10-27 21:10:00,
2013-10-27 17:20:00,49.6,32.2,30.00,East,98,0.0,0.0,51,0.00,,,0.00,Wunderground v.1.15,2013-10-27 21:20:00,
2013-10-27 17:30:00,49.2,32.3,30.00,ENE,59,0.0,0.0,52,0.00,,,0.00,Wunderground v.1.15,2013-10-27 21:30:00,
2013-10-27 17:35:00,49.1,31.7,30.00,ENE,59,0.0,0.0,51,0.00,,,0.00,Wunderground v.1.15,2013-10-27 21:35:00,
2013-10-27 17:45:00,48.7,32.3,30.01,North,32767,-999.0,0.0,53,0.00,,,0.00,Wunderground v.1.15,2013-10-27 21:45:00,
2013-10-27 17:55:00,48.1,32.2,30.01,North,32767,-999.0,0.0,54,0.00,,,0.00,Wunderground v.1.15,2013-10-27 21:55:00,
2013-10-27 18:00:00,47.9,32.0,30.01,North,32767,-999.0,0.0,54,0.00,,,0.00,Wunderground v.1.15,2013-10-27 22:00:00,
2013-10-27 18:09:00,47.6,31.8,30.02,North,32767,-999.0,0.0,54,0.00,,,0.00,Wunderground v.1.15,2013-10-27 22:09:00,
2013-10-27 18:14:00,47.6,31.8,30.02,North,32767,-999.0,0.0,54,0.00,,,0.00,Wunderground v.1.15,2013-10-27 22:14:00,
2013-10-27 18:19:00,47.5,32.1,30.02,North,32767,-999.0,0.0,55,0.00,,,0.00,Wunderground v.1.15,2013-10-27 22:19:00,
2013-10-27 18:25:00,47.4,32.0,30.02,North,32767,-999.0,0.0,55,0.00,,,0.00,Wunderground v.1.15,2013-10-27 22:25:00,
2013-10-27 18:29:00,47.4,32.0,30.02,North,32767,-999.0,0.0,55,0.00,,,0.00,Wunderground v.1.15,2013-10-27 22:29:00,
2013-10-27 18:35:00,47.3,32.4,30.03,North,32767,-999.0,0.0,56,0.00,,,0.00,Wunderground v.1.15,2013-10-27 22:35:00,
2013-10-27 18:44:00,47.0,32.5,30.03,North,32767,-999.0,0.0,57,0.00,,,0.00,Wunderground v.1.15,2013-10-27 22:44:00,
2013-10-27 18:50:00,47.0,32.5,30.03,North,32767,-999.0,0.0,57,0.00,,,0.00,Wunderground v.1.15,2013-10-27 22:50:00,
2013-10-27 18:55:00,46.9,32.4,30.04,North,32767,-999.0,0.0,57,0.00,,,0.00,Wunderground v.1.15,2013-10-27 22:55:00,
2013-10-27 19:00:00,46.7,32.3,30.04,North,32767,-999.0,0.0,57,0.00,,,0.00,Wunderground v.1.15,2013-10-27 23:00:00,
2013-10-27 19:10:00,46.5,32.5,30.04,North,32767,-999.0,0.0,58,0.00,,,0.00,Wunderground v.1.15,2013-10-27 23:10:00,
2013-10-27 19:20:00,46.1,32.1,30.05,North,32767,-999.0,0.0,58,0.00,,,0.00,Wunderground v.1.15,2013-10-27 23:20:00,
2013-10-27 19:25:00,46.0,32.5,30.05,North,32767,-999.0,0.0,59,0.00,,,0.00,Wunderground v.1.15,2013-10-27 23:25:00,
2013-10-27 19:30:00,45.8,32.3,30.05,North,32767,-999.0,0.0,59,0.00,,,0.00,Wunderground v.1.15,2013-10-27 23:30:00,
2013-10-27 19:35:00,45.7,32.2,30.06,North,32767,-999.0,0.0,59,0.00,,,0.00,Wunderground v.1.15,2013-10-27 23:35:00,
2013-10-27 19:40:00,45.5,32.4,30.06,North,32767,-999.0,0.0,60,0.00,,,0.00,Wunderground v.1.15,2013-10-27 23:40:00,
2013-10-27 19:50:00,45.3,32.2,30.06,North,32767,-999.0,0.0,60,0.00,,,0.00,Wunderground v.1.15,2013-10-27 23:50:00,
2013-10-27 20:00:00,45.1,32.0,30.06,North,32767,-999.0,0.0,60,0.00,,,0.00,Wunderground v.1.15,2013-10-28 00:00:00,
2013-10-27 20:10:00,44.8,31.8,30.07,North,32767,-999.0,0.0,60,0.00,,,0.00,Wunderground v.1.15,2013-10-28 00:10:00,
2013-10-27 20:19:00,44.7,31.7,30.07,North,32767,-999.0,0.0,60,0.00,,,0.00,Wunderground v.1.15,2013-10-28 00:19:00,
2013-10-27 20:24:00,44.6,31.6,30.07,North,32767,-999.0,0.0,60,0.00,,,0.00,Wunderground v.1.15,2013-10-28 00:24:00,
2013-10-27 20:29:00,44.4,31.8,30.07,North,32767,-999.0,0.0,61,0.00,,,0.00,Wunderground v.1.15,2013-10-28 00:29:00,
2013-10-27 20:34:00,44.2,31.6,30.07,North,32767,-999.0,0.0,61,0.00,,,0.00,Wunderground v.1.15,2013-10-28 00:34:00,
2013-10-27 20:39:00,44.1,31.5,30.07,North,32767,-999.0,0.0,61,0.00,,,0.00,Wunderground v.1.15,2013-10-28 00:39:00,
2013-10-27 20:44:00,44.1,31.5,30.07,North,32767,-999.0,0.0,61,0.00,,,0.00,Wunderground v.1.15,2013-10-28 00:44:00,
2013-10-27 20:50:00,44.1,31.5,30.07,North,32767,-999.0,0.0,61,0.00,,,0.00,Wunderground v.1.15,2013-10-28 00:50:00,
2013-10-27 20:55:00,44.0,31.4,30.08,North,32767,-999.0,0.0,61,0.00,,,0.00,Wunderground v.1.15,2013-10-28 00:55:00,
2013-10-27 21:00:00,44.0,31.4,30.08,North,32767,-999.0,0.0,61,0.00,,,0.00,Wunderground v.1.15,2013-10-28 01:00:00,
2013-10-27 21:10:00,43.8,31.2,30.08,North,32767,-999.0,0.0,61,0.00,,,0.00,Wunderground v.1.15,2013-10-28 01:10:00,
2013-10-27 21:20:00,43.8,31.6,30.09,North,32767,-999.0,0.0,62,0.00,,,0.00,Wunderground v.1.15,2013-10-28 01:20:00,
2013-10-27 21:30:00,43.7,31.5,30.09,North,32767,-999.0,0.0,62,0.00,,,0.00,Wunderground v.1.15,2013-10-28 01:30:00,
2013-10-27 21:40:00,43.4,31.6,30.09,North,32767,-999.0,0.0,63,0.00,,,0.00,Wunderground v.1.15,2013-10-28 01:40:00,
2013-10-27 21:45:00,43.3,31.5,30.10,North,32767,-999.0,0.0,63,0.00,,,0.00,Wunderground v.1.15,2013-10-28 01:45:00,
2013-10-27 21:50:00,43.2,31.4,30.10,North,32767,-999.0,0.0,63,0.00,,,0.00,Wunderground v.1.15,2013-10-28 01:50:00,
2013-10-27 22:00:00,43.1,31.7,30.10,North,32767,-999.0,0.0,64,0.00,,,0.00,Wunderground v.1.15,2013-10-28 02:00:00,
2013-10-27 22:09:00,42.8,31.5,30.11,North,32767,-999.0,0.0,64,0.00,,,0.00,Wunderground v.1.15,2013-10-28 02:09:00,
2013-10-27 22:14:00,42.7,31.4,30.11,North,32767,-999.0,0.0,64,0.00,,,0.00,Wunderground v.1.15,2013-10-28 02:14:00,
2013-10-27 22:19:00,42.7,31.7,30.11,North,32767,-999.0,0.0,65,0.00,,,0.00,Wunderground v.1.15,2013-10-28 02:19:00,
2013-10-27 22:25:00,42.5,31.6,30.12,North,32767,-999.0,0.0,65,0.00,,,0.00,Wunderground v.1.15,2013-10-28 02:25:00,
2013-10-27 22:35:00,42.3,31.7,30.11,North,32767,-999.0,0.0,66,0.00,,,0.00,Wunderground v.1.15,2013-10-28 02:35:00,
2013-10-27 22:45:00,42.0,31.8,30.11,North,32767,-999.0,0.0,67,0.00,,,0.00,Wunderground v.1.15,2013-10-28 02:45:00,
2013-10-27 22:55:00,41.9,31.7,30.11,North,32767,-999.0,0.0,67,0.00,,,0.00,Wunderground v.1.15,2013-10-28 02:55:00,
2013-10-27 23:00:00,41.8,31.6,30.12,North,32767,-999.0,0.0,67,0.00,,,0.00,Wunderground v.1.15,2013-10-28 03:00:00,
2013-10-27 23:10:00,41.4,31.6,30.12,North,32767,-999.0,0.0,68,0.00,,,0.00,Wunderground v.1.15,2013-10-28 03:10:00,
2013-10-27 23:20:00,41.4,31.6,30.12,North,32767,-999.0,0.0,68,0.00,,,0.00,Wunderground v.1.15,2013-10-28 03:20:00,
2013-10-27 23:30:00,41.3,31.9,30.13,North,32767,-999.0,0.0,69,0.00,,,0.00,Wunderground v.1.15,2013-10-28 03:30:00,
2013-10-27 23:35:00,41.3,31.9,30.13,North,32767,-999.0,0.0,69,0.00,,,0.00,Wunderground v.1.15,2013-10-28 03:35:00,
2013-10-27 23:40:00,41.2,31.8,30.13,North,32767,-999.0,0.0,69,0.00,,,0.00,Wunderground v.1.15,2013-10-28 03:40:00,
2013-10-27 23:45:00,41.2,31.8,30.13,North,32767,-999.0,0.0,69,0.00,,,0.00,Wunderground v.1.15,2013-10-28 03:45:00,
2013-10-27 23:50:00,41.1,31.7,30.13,North,32767,-999.0,0.0,69,0.00,,,0.00,Wunderground v.1.15,2013-10-28 03:50:00,
2013-10-27 23:55:00,41.0,31.6,30.13,North,32767,-999.0,0.0,69,0.00,,,0.00,Wunderground v.1.15,2013-10-28 03:55:00,